Zurück zum Katalog

PSLV DEB

AktivPO
NORAD 27142·DEBRIS·🇮🇳 India

Gestartet Oct 22, 2001 von Satish Dhawan Space Centre

Loading…

Nächste Überflüge (nächste 24 Stunden)

TLE

AktuellSource: Space-Track

Epoche: Sep 14, 2026, 01:16 UTC

1 27142U 01049CN  26257.05332116  .00000235  00000-0  10107-3 0  9995
2 27142  97.3551 283.3296 0274096 287.7567  69.3873 14.13816690271545

Verfolge PSLV DEB in Echtzeit mit AllMySat

Download on the App Store